Regional Weather Roundup
Issued by NWS

Home | Current Version | Previous Version | Text Only | Print | Product List | Glossary On
Versions: 1 2 3 4 5 6 7 8 9 10 11 12 13 14 15 16 17 18 19 20 21 22 23 24 25 26 27 28 29 30 31 32 33 34 35 36 37 38 39 40 41 42 43 44 45 46 47 48 49 50
000
ASUS44 KJAN 040110
RWRMS

MISSISSIPPI HOURLY WEATHER ROUNDUP
NATIONAL WEATHER SERVICE JACKSON MS
800 PM CDT MON AUG 03 2015

NOTE: "FAIR: INDICATES FEW OR NO CLOUDS BELOW 12,000 FEET WITH NO
SIGNIFICANT WEATHER AND/OR OBSTRUCTIONS TO VISIBILITY.

MSZ001>002-007>008-010>013-018>021-025>028-034>036-040200-
NORTHWEST MISSISSIPPI

CITY           SKY/WX    TMP DP  RH WIND       PRES   REMARKS
CLEVELAND      FAIR      84  76  75 CALM      29.90S HX  93
GREENWOOD      PTCLDY    82  71  69 CALM      29.90S
GREENVILLE     PTCLDY    87  78  74 NE3       29.90S HX 100
OLIVE BRANCH   MOCLDY    88  68  51 CALM      29.92R HX  91
OXFORD         FAIR      82  73  74 CALM      29.94S
$$

MSZ003>006-009-014>017-022>024-029>033-037>039-040200-
NORTHEAST MISSISSIPPI

CITY           SKY/WX    TMP DP  RH WIND       PRES   REMARKS
COLUMBUS AFB   PTCLDY    85  70  59 N7        29.90S HX  90
CORINTH        FAIR      82  73  74 W5        29.92R
GOLDN TRIANGLE PTCLDY    86  64  48 NW5       29.90S
STARKVILLE     FAIR      79  72  78 CALM      29.91S
TUPELO         PTCLDY    86  71  60 CALM      29.91S HX  91
$$

MSZ040-058-040200-
CENTRAL MISSISSIPPI

CITY           SKY/WX    TMP DP  RH WIND       PRES   REMARKS
JACKSON INTL   PTCLDY    91  63  39 NE6       29.89S HX  92
JACKSON HAWKNS MOCLDY    91  65  41 N5        29.90R HX  93
MERIDIAN KEY   CLEAR     80  66  62 CALM      29.90S
MERIDIAN NAS   MOCLDY    86  62  44 CALM      29.90S
VICKSBURG      CLEAR     86  72  62 N3        29.88S HX  92
$$

MSZ059>079-040200-
SOUTH MISSISSIPPI

CITY           SKY/WX    TMP DP  RH WIND       PRES   REMARKS
HATTIESBURG    CLEAR     88  69  53 SW5       29.89R HX  92
MCCOMB         CLEAR     86  73  65 S8        29.90R HX  93
NATCHEZ        CLEAR     86  72  62 N3        29.89F HX  92
PINE BELT      CLEAR     82 N/A N/A CALM      29.91S
$$

MSZ080>082-040200-
COASTAL MISSISSIPPI

CITY           SKY/WX    TMP DP  RH WIND       PRES   REMARKS
BAY ST LOUIS   CLEAR     81  72  74 CALM      29.89S
BILOXI         CLEAR     85  76  74 W5        29.88F HX  94
PASCAGOULA     CLEAR     83  76  79 CALM      29.89S HX  91
GULFPORT       CLEAR     85  75  72 SW3       29.88S HX  93
$$



USA.gov is the U.S. government's official web portal to all federal, state and local government web resources and services.